Tucson, AZ

8:36 PM MST on September 18, 2019 (GMT -0700)
Tucson International

Weather History for KTUS - July, 2019

Change the Weather History Date:

Friday, July 19, 2019

  Actual Average Record
Temperature  
Mean Temperature 92 °F 87 °F  
Max Temperature 103 °F 99 °F 109 °F (2009)
Min Temperature 81 °F 75 °F 65 °F (1948)
Degree Days  
Heating Degree Days 0 0  
Month to date heating degree days 0 0  
Since 1 June heating degree days 0 0  
Since 1 July heating degree days 0 0  
Cooling Degree Days 27 22  
Month to date cooling degree days 489 430  
Year to date cooling degree days 1474 1526  
Since 1 June cooling degree days 1102 1024  
Growing Degree Days 42 (Base 50)    
Moisture  
Dew Point 53 °F    
Average Humidity 29    
Maximum Humidity 47    
Minimum Humidity 10    
Precipitation  
Precipitation 0.00 in 0.08 in 1.39 in (1970)
Month to date precipitation 0.29 1.15  
Year to date precipitation 5.32 4.42  
Sea Level Pressure  
Sea Level Pressure 29.77 in    
Wind  
Wind Speed 10 mph (West)    
Max Wind Speed 20 mph    
Max Gust Speed 27 mph    
Visibility 10 miles    
Events      
T = Trace of Precipitation, MM = Missing Value Source: NWS Daily Summary

Daily Weather History Graph

Daily Weather History Graph

Search for Another Location

Airport or City:

Astronomy

Jul. 19, 2019 Rise Set
Actual Time 5:30 AM MST 7:29 PM MST
Civil Twilight 5:02 AM MST 7:56 PM MST
Nautical Twilight 4:29 AM MST 8:30 PM MST
Astronomical Twilight 3:54 AM MST 9:05 PM MST
Moon 9:36 PM MST 7:55 AM MST
Length of Visible Light 14h 53m
Length of Day
13h 59m
Waning Gibbous, 92% of the Moon is Illuminated
Jul 19
Waning Gibbous
Jul 24
Last Quarter
Jul 31
New
Aug 7
First Quarter
Aug 15
Full

Hourly Weather History & Observations

Time (MST) Temp. Heat Index Dew Point Humidity Pressure Visibility Wind Dir Wind Speed Gust Speed Precip Events Conditions
12:53 AM 88.0 °F 87.6 °F 60.1 °F 39% 29.79 in 10.0 mi SSE 6.9 mph - N/A   Partly Cloudy
1:53 AM 87.1 °F 87.0 °F 61.0 °F 41% 29.78 in 10.0 mi South 18.4 mph 27.6 mph N/A   Clear
2:53 AM 84.9 °F 84.8 °F 60.1 °F 43% 29.78 in 10.0 mi South 11.5 mph - N/A   Clear
3:53 AM 84.0 °F 83.8 °F 59.0 °F 43% 29.77 in 10.0 mi South 11.5 mph - N/A   Clear
4:53 AM 82.0 °F 82.4 °F 60.1 °F 47% 29.78 in 10.0 mi SSE 10.4 mph - N/A   Clear
5:53 AM 81.0 °F 81.3 °F 59.0 °F 47% 29.80 in 10.0 mi SSE 9.2 mph - N/A   Clear
6:53 AM 82.0 °F 82.4 °F 60.1 °F 47% 29.81 in 10.0 mi SSE 10.4 mph - N/A   Clear
7:53 AM 84.0 °F 84.0 °F 60.1 °F 44% 29.83 in 10.0 mi South 10.4 mph - N/A   Clear
8:53 AM 88.0 °F 87.6 °F 60.1 °F 39% 29.83 in 10.0 mi South 6.9 mph - N/A   Clear
9:53 AM 91.0 °F 90.2 °F 59.0 °F 34% 29.82 in 10.0 mi NNW 4.6 mph - N/A   Clear
10:53 AM 93.0 °F 91.7 °F 57.0 °F 30% 29.81 in 10.0 mi North - - N/A   Clear
11:53 AM 97.0 °F 96.1 °F 57.9 °F 27% 29.79 in 10.0 mi North 8.1 mph - N/A   Clear
12:18 PM 98.1 °F 96.4 °F 55.0 °F 24% 29.95 in 10.0 mi North 8.1 mph - N/A   Clear
12:53 PM 99.0 °F 96.5 °F 53.1 °F 21% 29.76 in 10.0 mi WNW 9.2 mph - N/A   Clear
1:53 PM 100.9 °F 98.7 °F 53.1 °F 20% 29.73 in 10.0 mi NNW 9.2 mph 21.9 mph N/A   Clear
2:53 PM 102.9 °F - 52.0 °F 18% 29.71 in 10.0 mi North 11.5 mph 21.9 mph N/A   Clear
3:53 PM 102.9 °F - 52.0 °F 18% 29.69 in 10.0 mi NNW 15.0 mph 23.0 mph N/A   Partly Cloudy
4:53 PM 100.9 °F - 50.0 °F 18% 29.69 in 10.0 mi North 17.3 mph 26.5 mph N/A   Scattered Clouds
5:53 PM 100.9 °F - 48.0 °F 17% 29.69 in 10.0 mi NNW 8.1 mph 24.2 mph N/A   Clear
6:53 PM 98.1 °F - 46.9 °F 18% 29.70 in 10.0 mi NNW 10.4 mph - N/A   Clear
7:53 PM 96.1 °F - 42.1 °F 15% 29.71 in 10.0 mi NNW 10.4 mph - N/A   Clear
8:53 PM 93.0 °F - 42.1 °F 17% 29.73 in 10.0 mi North - - N/A   Clear
9:53 PM 90.0 °F - 43.0 °F 19% 29.76 in 10.0 mi Calm Calm - N/A   Clear
10:53 PM 86.0 °F - 46.0 °F 25% 29.77 in 10.0 mi SW 5.8 mph - N/A   Clear
11:53 PM 84.0 °F - 45.0 °F 25% 29.78 in 10.0 mi SW 5.8 mph - N/A   Clear